Portada
METAR-TAF:

METAR-TAF

Aeroports :

Cuenca, Equador

latitud: 02-53-22S, longitud: 078-59-04W, altitud: 2532 m

Observació

L'informe es va fer fa 37 minuts, a les 01:00 UTC
Vent calma
Temperatura 14°C
Humitat 94%
Pressió 1024 hPa

METAR: SECU 060100Z AUTO 00000KT ////NDV NCD 14/13 Q1024

Hora: 20:37 (01:37 UTC)


TAF: manca

Observacions i pronòstics meteorològics de més de 4000 aeroports (METAR i TAF).

Les estacions disponibles són els punts grocs i vermells al mapa.

Posi el ratolí al punt desitjat per veure el nom de l'estació.

Feu clic per veure les observacions i els pronòstics meteorològics.

Per canviar el mapa: feu clic els botons verds amb una creu de color negre per apropar; al botó verd amb un guió per allunyar la imatge; o en les fletxes verdes per a mapes adjacents.


METAR-TAF: